Regional Weather Roundup
Issued by NWS

Home | Current Version | Previous Version | Text Only | Print | Product List | Glossary Off
Versions: 1 2 3 4 5 6 7 8 9 10 11 12 13 14 15 16 17 18 19 20 21 22 23 24 25 26 27 28 29 30 31 32 33 34 35 36 37 38 39 40 41 42 43 44 45 46 47 48 49 50

000
ASUS45 KPSR 221700
RWRAZ

ARIZONA HOURLY REGIONAL WEATHER ROUNDUP
NATIONAL WEATHER SERVICE PHOENIX AZ
1000 AM MST FRI MAY 22 2015

NOTE: FAIR INDICATES FEW OR NO CLOUDS BELOW 12,000 FEET WITH NO
SIGNIFICANT WEATHER AND/OR OBSTRUCTIONS TO VISIBILITY.

AZZ001>003-036-221800-
NORTHWEST ARIZONA

CITY           SKY/WX    TMP DP  RH WIND       PRES   REMARKS
KINGMAN        PTSUNNY   64  30  27 SW16      29.90F
$$

AZZ004>008-015-016-018-221800-
NORTH CENTRAL ARIZONA

CITY           SKY/WX    TMP DP  RH WIND       PRES   REMARKS
GRAND CANYON   CLOUDY    52  32  46 S13G20    30.00F
WILLIAMS       PTSUNNY   54  34  47 SE16G23   30.06F
PRESCOTT       PTSUNNY   59  38  45 SE17G23   29.97S
FLAGSTAFF      NOT AVBL
PAYSON         MOSUNNY   59  25  27 S9G17     30.03S
$$

AZZ009>014-017-221800-
NORTHEAST ARIZONA

CITY           SKY/WX    TMP DP  RH WIND       PRES   REMARKS
WINSLOW        NOT AVBL
SAINT JOHNS    PTSUNNY   63  23  21 VRB6      29.99F
WINDOW ROCK    PTSUNNY   59  27  29 S10       30.06F
$$

AZZ023-221800-
GREATER PHOENIX AREA

CITY           SKY/WX    TMP DP  RH WIND       PRES   REMARKS
PHOENIX        MOSUNNY   73  41  31 CALM      29.89S
GLENDALE       MOSUNNY   73  41  31 SW10      29.91F
LUKE AFB       SUNNY     73  42  32 S16       29.89S
DEER VALLEY    SUNNY     72  38  29 NE3       29.89F
SCOTTSDALE     SUNNY     72  38  29 VRB7      29.92S
MESA-FALCON    PTSUNNY   72  37  28 S7        29.91S
MESA-GATEWAY   PTSUNNY   72  37  28 SW8       29.93S
CHANDLER       PTSUNNY   73  39  29 SW9       29.91S
$$

AZZ027-028-221800-
SOUTHWEST MARICOPA COUNTY AND PINAL COUNTY

CITY           SKY/WX    TMP DP  RH WIND       PRES   REMARKS
CASA GRANDE    MOSUNNY   73  36  25 SW10      29.90S
GILA BEND      FAIR      71  38  30 W13       29.92S HAZE
$$

AZZ503-504-507>509-221800-
SOUTHEAST ARIZONA

CITY           SKY/WX    TMP DP  RH WIND       PRES   REMARKS
TUCSON         SUNNY     75  23  14 S14G22    29.97F
DAVIS-MONTHAN  SUNNY     74  24  15 S12G22    29.95F
RYAN FIELD       N/A     77  27  15 SW17G24   29.95F
NOGALES        SUNNY     71  26  18 S16G23    30.01F
SIERRA VISTA   SUNNY     69  13  11 SW13      30.03F
SAFFORD        SUNNY     75  23  14 SE9G23    29.94F
$$

AZZ020-021-025-026-031-221800-
SOUTHWEST ARIZONA

CITY           SKY/WX    TMP DP  RH WIND       PRES   REMARKS
YUMA           NOT AVBL
$$

CAZ031-033-041-043-047-048-061-221800-
SOUTHERN CALIFORNIA

CITY           SKY/WX    TMP DP  RH WIND       PRES   REMARKS
DOWNTOWN L.A.  PTSUNNY   64  49  57 VRB3      30.02R
L.A. AIRPORT   PTSUNNY   60  51  72 W9G20     30.03S
SAN DIEGO      MOSUNNY   65  49  56 NW8       30.07R
BURBANK        CLOUDY    60  49  66 SE7       30.01S
ONTARIO        CLOUDY    58  46  64 W8        30.02R
RIVERSIDE      CLOUDY    61  45  55 W8        30.02S
PALM SPRINGS   MOSUNNY   72  40  31 W6        29.91S
EL CENTRO NAS  MOSUNNY   72  39  30 W10G31    29.95S
IMPERIAL       SUNNY     71  42  35 W25G33    29.92S
BLYTHE         SUNNY     73  43  33 W12       29.88S
$$

NVZ020-UTZ003-221800-
SOUTHERN NEVADA-UTAH

CITY           SKY/WX    TMP DP  RH WIND       PRES   REMARKS
LAS VEGAS      NOT AVBL
SALT LAKE CITY CLOUDY    60  45  57 S6        29.91S
$$

NMZ009-TXZ055-221800-
NEW MEXICO-WEST TEXAS

CITY           SKY/WX    TMP DP  RH WIND       PRES   REMARKS
ALBUQUERQUE    PTSUNNY   59  45  59 SW9       30.11F
EL PASO        SUNNY     69  52  54 E6        30.05F
$$


........................KEY........................
SKY/WX - SKY CONDITION/WEATHER
TMP    - TEMPERATURE IN FAHRENHEIT
DP     - DEW POINT IN FAHRENHEIT
RH     - RELATIVE HUMIDITY IN PERCENT
WIND   - DIRECTION AND SPEED IN MILES PER HOUR (MPH)
VRB    - VARIABLE WIND DIRECTION
PRES   - MEAN SEA LEVEL PRESSURE IN INCHES OF MERCURY
         F - FALLING PRESSURE   R - RISING PRESSURE
         S - STEADY PRESSURE
VSB    - VISIBILITY IN MILES
HX     - HEAT INDEX IN FAHRENHEIT
WCI    - WIND CHILL INDEX IN FAHRENHEIT
TC     - TEMPERATURE IN CELSIUS WHICH IS ALSO KNOWN AS
         TEMPERATURE IN CENTIGRADE
AFB    - AIR FORCE BASE
         LUKE AFB IS LUKE AIR FORCE BASE
         DAVIS-MONTHAN IS DAVIS-MONTHAN AIR FORCE BASE
NAS    - NAVAL AIR STATION
         EL CENTRO NAS IS EL CENTRO NAVAL AIR STATION
N/A    - NOT AVAILABLE




USA.gov is the U.S. government's official web portal to all federal, state and local government web resources and services.